Regional Weather Roundup
Issued by NWS Glasgow, MT

Home | Current Version | Previous Version | Text Only | Print | Product List | Glossary On
Versions: 1 2 3 4 5 6 7 8 9 10 11 12 13 14 15 16 17 18 19 20 21 22 23 24 25 26 27 28 29 30 31 32 33 34 35 36 37 38 39 40 41 42 43 44 45 46 47 48 49 50
000
ASUS45 KGGW 280715
RWRGGW
HOURLY WEATHER ROUNDUP FOR NORTHEAST MONTANA
NATIONAL WEATHER SERVICE GLASGOW MONTANA
1200 AM MST WED JAN 28 2015

NOTE: "FAIR" INDICATES FEW OR NO CLOUDS BELOW 12,000 FEET WITH NO
SIGNIFICANT WEATHER AND/OR OBSTRUCTIONS TO VISISBILITY.

NORTHEAST MONTANA


CITY           SKY/WX    TMP DP  RH WIND       PRES   REMARKS
GLASGOW        MOCLDY    34  31  88 NW5       29.76S
PLENTYWOOD       N/A     35  32  88 SE2         N/A
WOLF POINT     CLOUDY    32  29  88 CALM      29.76F
JORDAN           N/A     34  30  85 W7        29.79R
WINNETT          N/A     35  32  88 SW2         N/A
SIDNEY         CLOUDY    34  30  86 CALM      29.78S
GLENDIVE       MOCLDY    37  30  75 W5        29.77F
MALTA            N/A     37  32  82 SW7         N/A
SCOBEY           N/A     32  27  82 CALM      29.74S

FORT PECK REPORTS


CITY           SKY/WX    TMP DP  RH WIND       PRES   REMARKS
FORT PECK        N/A     36  32  85 S6          N/A
THE PINES        N/A     36  30  80 S3          N/A

SOUTHEAST MONTANA


CITY           SKY/WX    TMP DP  RH WIND       PRES   REMARKS
BILLINGS       CLOUDY    48  29  47 SW17      29.88R
MILES CITY     CLEAR     34  30  85 NW7       29.80S
BAKER          CLEAR     30  26  85 CALM      29.79S
LIVINGSTON     CLOUDY    50  33  52 SW30G41   29.97R

CENTRAL MONTANA


CITY           SKY/WX    TMP DP  RH WIND       PRES   REMARKS
HAVRE          MOCLDY    45  29  53 SW18      29.81S
LEWISTOWN      CLOUDY    41  30  65 SW12      29.89R
GREAT FALLS    CLOUDY    48  29  47 SW14      29.90R
CUT BANK       CLOUDY    44  23  43 W23       29.87R
HELENA         CLOUDY    37  32  82 SW3       30.00R
BUTTE          CLOUDY    32  28  85 CALM      30.05R
BOZEMAN        CLOUDY    35  31  85 S6        30.01R

WESTERN MONTANA


CITY           SKY/WX    TMP DP  RH WIND       PRES   REMARKS
MISSOULA       MOCLDY    28  26  92 CALM      30.08R
KALISPELL      NOT AVBL

NORTH DAKOTA


CITY           SKY/WX    TMP DP  RH WIND       PRES   REMARKS
WILLISTON      CLOUDY    32  29  88 S3        29.74F
DICKINSON      CLEAR     39  30  70 NW5       29.74F
MINOT          MOCLDY    30  28  92 W6        29.76F
BISMARCK       CLOUDY    29  28  96 CALM      29.78F

SOUTHERN SASKATCHEWAN


CITY           SKY/WX    TMP DP  RH WIND       PRES   REMARKS
REGINA         MOCLDY    28  27  93 E15       29.77F
ESTEVAN        CLOUDY    28  28 100 E7        29.77S
SWIFT CURRENT  CLOUDY    32  30  93 W8        29.71R



USA.gov is the U.S. government's official web portal to all federal, state and local government web resources and services.